[[{"header":{"parameterUnit":"m.s-1","parameterCategory":1,"la1":30.2991,"la2":30.254,"lo1":-89.0895,"lo2":-89.0444,"dy":0.0017,"dx":0.0017,"nx":28,"ny":28,"refTime":"2025-01-05T09:00:00:Z","depth":0,"parameterNumber":2,"parameterNumberName":"U-component_of_WINDS"},"data":[0,0,0,0,0,0,0,0,0,0,0,0,0,0,0,0,0,0,0,0,0,0,0,0,0,0,0,0,0,0,0,0,0,0,0,0,0,0,0,0,0,0,0,0,0,0,0,0,0,0,0,0,0,0,0,0,0,0,5.1823,5.1823,0,5.1874,5.1874,5.1875,5.1811,5.1809,5.1806,5.1804,5.1854,5.1858,5.1861,0,0,0,0,0,0,0,0,0,0,0,0,0,5.1671,5.1674,5.1823,5.1823,5.1824,5.1873,5.1874,5.1875,5.1811,5.1808,5.1806,5.1803,5.1853,5.1857,5.1861,0,0,0,0,0,0,0,0,0,0,0,0,0,5.1731,5.1675,5.1823,5.1798,5.1797,5.1873,5.1874,5.1875,5.1812,5.1808,5.1805,5.1802,5.1852,5.1857,5.1862,5.1964,0,0,5.1878,5.188,0,0,0,0,0,0,0,0,5.1728,5.1736,5.1801,5.18,5.1798,5.1832,5.1839,5.1905,5.1813,5.1806,5.1804,5.18,5.185,5.1855,5.1872,5.1967,5.1969,5.1879,5.1882,5.1884,5.1885,0,0,0,0,0,0,0,5.1723,5.1734,5.1843,5.1802,5.1801,5.1785,5.179,5.1851,5.1847,5.1806,5.1802,5.1809,5.1848,5.1867,5.1873,5.197,5.1878,5.1883,5.1886,5.1888,5.2154,5.2158,0,0,0,0,0,0,5.1722,5.1731,5.1841,5.1844,5.1754,5.1791,5.1796,5.1825,5.1846,5.1846,5.1812,5.1806,5.186,5.1867,5.1874,5.1997,5.1884,5.1889,5.1892,5.215,5.2155,5.2159,0,0,0,0,0,0,5.1719,5.1733,5.1839,5.1786,5.1799,5.1797,5.183,5.1828,5.1847,5.185,5.1849,5.1832,5.1857,5.1867,5.1943,5.1998,5.1891,5.1896,5.2146,5.2152,5.2157,5.2243,0,0,0,0,0,0,5.1715,5.1732,5.1771,5.1788,5.1802,5.1907,5.1834,5.1831,5.1856,5.1849,5.1869,5.1869,5.1855,5.1936,5.1949,5.2003,5.19,5.2141,5.2148,5.2155,5.2235,5.2251,5.2265,0,0,0,0,0,5.171,5.1792,5.1773,5.1786,5.185,5.1911,5.1919,5.1902,5.1861,5.19,5.1903,5.1868,5.199,5.1944,5.1958,5.2015,5.2137,5.2146,5.2155,5.2229,5.2248,5.2264,0,0,0,0,0,0,5.1779,5.1793,5.1773,5.1862,5.1886,5.19,5.1948,5.1923,5.1958,5.1949,5.1927,5.1932,5.2014,5.2022,5.1971,5.2117,5.2057,5.2069,5.2109,5.2127,5.2141,5.2138,5.1905,0,0,0,0,0,5.1805,5.1854,5.1863,5.1941,5.1955,5.195,5.1975,5.1961,5.1984,5.1994,5.2002,5.2025,5.2069,5.2098,5.2139,5.2237,5.2241,5.2283,5.2298,5.231,5.232,5.2375,5.2394,5.2188,5.2188,5.2188,0,0,5.1859,5.1873,5.1904,5.1956,5.1972,5.2023,5.1958,5.2014,5.2052,5.2002,5.2075,5.2082,5.2107,5.2196,5.2235,5.2205,5.2379,5.2321,5.2331,5.2335,5.2386,5.2405,5.2423,5.2194,5.2193,5.2192,0,0,5.1983,5.1998,5.2066,5.2084,5.2111,5.2108,5.2125,5.2143,5.2147,5.222,5.2185,5.2229,5.2305,5.2325,5.2345,5.2481,5.2451,5.2494,5.2571,5.2624,5.2641,5.2655,5.2705,5.2723,5.2505,5.2505,5.2505,0,5.2046,5.2121,5.2103,5.2163,5.2188,5.2147,5.2216,5.2235,5.2273,5.2291,5.2258,5.2354,5.2367,5.2461,5.2495,5.2512,5.2531,5.2491,5.264,5.2654,5.2667,5.2714,5.2733,5.251,5.251,5.2509,5.2509,0,5.2198,5.2251,5.2303,5.2343,5.2373,5.2437,5.243,5.2463,5.2448,5.2448,5.2525,5.2541,5.2585,5.2606,5.259,5.2698,5.2679,5.2643,5.2582,5.2692,5.2736,5.2754,5.2518,5.2516,5.2514,5.2513,0,0,5.2365,5.2397,5.2416,5.2435,5.2463,5.2504,5.2567,5.2611,5.2641,5.267,5.2723,5.2789,5.2757,5.278,5.2767,5.2814,5.2923,5.2772,5.2772,5.28,5.3045,5.3072,5.3093,5.2903,5.2907,5.2909,5.3043,0,5.249,5.26,5.2587,5.2692,5.2742,5.2706,5.2761,5.2785,5.2788,5.2831,5.2834,5.2883,5.2836,5.285,5.2895,5.29,5.2971,5.289,5.2953,5.2955,5.2948,5.3116,5.3144,5.327,5.306,5.3063,5.3065,0,5.2649,5.2686,5.2797,5.282,5.284,5.289,5.2932,5.2973,5.3,5.2999,5.3027,5.3006,5.307,5.3009,5.3099,5.3044,5.3069,5.3076,5.308,5.3085,5.3017,5.3126,5.3309,5.3328,5.3092,5.309,5.3088,0,5.2762,5.2838,5.2915,5.2932,5.2961,5.2997,5.3011,5.3034,5.3063,5.3099,5.3118,5.316,5.3184,5.3218,5.321,5.3166,5.3302,5.3239,5.3304,5.3304,5.3333,5.3332,5.3523,5.335,5.3349,5.3349,5.3349,0,5.2903,5.2972,5.2966,5.3013,5.3091,5.3077,5.3154,5.3163,5.3185,5.3233,5.3204,5.3251,5.3237,5.3283,5.3277,5.3353,5.3364,5.3365,5.3363,5.3368,5.3368,5.3384,5.3376,5.3354,5.3353,5.3352,5.3351,0,5.304,5.3039,5.3121,5.3142,5.315,5.3206,5.3224,5.3269,5.3271,5.3334,5.3348,5.3351,5.3404,5.34,5.3459,5.3455,5.3549,5.3536,5.3541,5.3538,5.3603,5.3597,5.3812,5.384,5.3647,5.3649,5.3651,0,5.313,5.3183,5.3212,5.3243,5.326,5.331,5.334,5.3329,5.3361,5.3397,5.3438,5.3489,5.3529,5.3616,5.3624,5.367,5.3658,5.373,5.3665,5.3669,5.366,5.3658,5.3664,5.3743,5.3745,5.3747,5.3748,0,5.3291,5.3289,5.3333,5.3378,5.3415,5.345,5.3481,5.3508,5.3501,5.3539,5.3594,5.3625,5.3687,5.3739,5.3783,5.3797,5.3773,5.3769,5.3787,5.3793,5.3793,5.3795,5.3576,5.3764,5.3763,5.3761,5.3761,5.376,5.3408,5.3455,5.3483,5.3534,5.3557,5.3588,5.3632,5.3641,5.3687,5.3737,5.3728,5.379,5.3818,5.3875,5.3894,5.3943,5.3917,5.3942,5.3948,5.3955,5.3963,5.3786,5.3951,5.395,5.395,5.395,5.3949,0,5.3568,5.3585,5.3633,5.3679,5.372,5.3694,5.3729,5.3764,5.382,5.3848,5.3889,5.3954,5.4004,5.4017,5.4066,5.4103,5.4093,5.4116,5.4113,5.4117,5.3983,5.3963,5.4124,5.4124,5.4123,5.4123,5.4123,5.4123,5.3656,5.3734,5.3736,5.3825,5.3842,5.3903,5.3925,5.3954,5.3977,5.4051,5.4093,5.4102,5.4125,5.4176,5.4222,5.4224,5.4244,5.4272,5.427,5.4144,5.4126,5.411,5.4091,5.4276,5.4276,5.4401,5.4402,5.4403]},{"header":{"parameterUnit":"m.s-1","parameterCategory":1,"la1":30.2991,"la2":30.254,"lo1":-89.0895,"lo2":-89.0444,"dy":0.0017,"dx":0.0017,"nx":28,"ny":28,"refTime":"2025-01-05T09:00:00:Z","depth":0,"parameterNumber":3,"parameterNumberName":"V-component_of_WINDS"},"data":[0,0,0,0,0,0,0,0,0,0,0,0,0,0,0,0,0,0,0,0,0,0,0,0,0,0,0,0,0,0,0,0,0,0,0,0,0,0,0,0,0,0,0,0,0,0,0,0,0,0,0,0,0,0,0,0,0,0,-8.1857,-8.1859,0,-8.2049,-8.2051,-8.2054,-8.2036,-8.2033,-8.203,-8.2027,-8.2219,-8.2227,-8.2235,0,0,0,0,0,0,0,0,0,0,0,0,0,-8.147,-8.1477,-8.1856,-8.1859,-8.1861,-8.2049,-8.2051,-8.2054,-8.2036,-8.2033,-8.2029,-8.2026,-8.2217,-8.2226,-8.2235,0,0,0,0,0,0,0,0,0,0,0,0,0,-8.1647,-8.1479,-8.1856,-8.1875,-8.1879,-8.2048,-8.2052,-8.2055,-8.2037,-8.2032,-8.2028,-8.2024,-8.2213,-8.2225,-8.2237,-8.2398,0,0,-8.2273,-8.2278,0,0,0,0,0,0,0,0,-8.1637,-8.1662,-8.187,-8.1874,-8.1878,-8.2014,-8.1986,-8.217,-8.2038,-8.1977,-8.2027,-8.2022,-8.2154,-8.2171,-8.2216,-8.2407,-8.2416,-8.2274,-8.2281,-8.2286,-8.2289,0,0,0,0,0,0,0,-8.1625,-8.1653,-8.1932,-8.1873,-8.1878,-8.1873,-8.1893,-8.202,-8.2088,-8.1982,-8.1981,-8.2004,-8.2156,-8.2205,-8.2221,-8.2418,-8.2273,-8.2284,-8.2291,-8.2296,-8.2753,-8.2758,0,0,0,0,0,0,-8.1609,-8.1643,-8.1926,-8.1938,-8.1745,-8.1883,-8.1906,-8.1975,-8.2086,-8.2099,-8.2008,-8.2003,-8.2187,-8.2207,-8.2227,-8.2425,-8.2286,-8.2297,-8.2304,-8.2748,-8.2755,-8.276,0,0,0,0,0,0,-8.1601,-8.1634,-8.1919,-8.1791,-8.1826,-8.1895,-8.1972,-8.1981,-8.203,-8.2106,-8.2118,-8.2046,-8.2184,-8.2211,-8.2357,-8.2432,-8.2302,-8.2313,-8.2742,-8.275,-8.2757,-8.2821,0,0,0,0,0,0,-8.1589,-8.1631,-8.1694,-8.1792,-8.1833,-8.2046,-8.1977,-8.1988,-8.2051,-8.2046,-8.2145,-8.2157,-8.2183,-8.2339,-8.2368,-8.2445,-8.2322,-8.2736,-8.2746,-8.2755,-8.2813,-8.283,-8.2845,0,0,0,0,0,-8.1576,-8.1703,-8.1697,-8.1732,-8.1913,-8.205,-8.2074,-8.2102,-8.2057,-8.2121,-8.217,-8.2154,-8.2419,-8.2354,-8.2387,-8.2469,-8.2731,-8.2743,-8.2754,-8.2806,-8.2827,-8.2845,0,0,0,0,0,0,-8.1609,-8.1716,-8.1711,-8.1874,-8.1954,-8.2047,-8.2128,-8.2123,-8.2216,-8.2207,-8.2237,-8.2259,-8.2407,-8.2452,-8.2378,-8.2632,-8.2569,-8.2587,-8.2597,-8.2618,-8.2633,-8.2619,-8.2332,0,0,0,0,0,-8.1636,-8.174,-8.1827,-8.1962,-8.2003,-8.2059,-8.2119,-8.2134,-8.2217,-8.225,-8.231,-8.2389,-8.2491,-8.2557,-8.2654,-8.282,-8.2841,-8.2892,-8.2908,-8.2921,-8.2936,-8.3029,-8.3053,-8.2797,-8.2797,-8.2797,0,0,-8.1692,-8.1763,-8.1826,-8.1971,-8.2034,-8.214,-8.2087,-8.22,-8.2279,-8.2267,-8.2409,-8.2456,-8.2547,-8.2704,-8.2776,-8.2746,-8.3012,-8.2935,-8.2945,-8.2954,-8.3043,-8.3067,-8.3088,-8.2805,-8.2804,-8.2803,0,0,-8.1847,-8.1912,-8.2032,-8.2098,-8.2195,-8.2232,-8.2261,-8.2357,-8.2388,-8.2532,-8.2525,-8.2618,-8.2792,-8.2858,-8.2914,-8.3097,-8.3086,-8.3128,-8.3212,-8.3301,-8.3321,-8.3339,-8.3406,-8.3429,-8.3143,-8.3143,-8.3143,0,-8.1904,-8.2064,-8.2094,-8.2211,-8.2274,-8.2271,-8.2393,-8.2455,-8.2578,-8.2622,-8.2588,-8.2807,-8.2868,-8.3041,-8.3086,-8.3132,-8.3165,-8.3116,-8.3316,-8.3335,-8.3352,-8.3415,-8.344,-8.3148,-8.3147,-8.3147,-8.3146,0,-8.2129,-8.2241,-8.2326,-8.2449,-8.2522,-8.2641,-8.2688,-8.2759,-8.2768,-8.2809,-8.2956,-8.3029,-8.3142,-8.3184,-8.3193,-8.3359,-8.3338,-8.331,-8.3247,-8.338,-8.344,-8.3465,-8.3154,-8.3153,-8.3151,-8.315,0,0,-8.231,-8.2449,-8.248,-8.2537,-8.2645,-8.2731,-8.285,-8.2962,-8.3023,-8.3109,-8.3209,-8.3357,-8.3333,-8.3396,-8.3413,-8.3492,-8.3634,-8.3454,-8.3457,-8.3485,-8.3822,-8.3843,-8.387,-8.3627,-8.3632,-8.3636,-8.3815,0,-8.2477,-8.2689,-8.272,-8.2906,-8.301,-8.3009,-8.3112,-8.319,-8.3231,-8.3324,-8.3369,-8.3474,-8.3433,-8.3472,-8.355,-8.36,-8.3702,-8.3587,-8.372,-8.3724,-8.3698,-8.3902,-8.3923,-8.4088,-8.3838,-8.3842,-8.3845,0,-8.2699,-8.2794,-8.2991,-8.3088,-8.3133,-8.3225,-8.3332,-8.3421,-8.3509,-8.3533,-8.3606,-8.3614,-8.3736,-8.3669,-8.3838,-8.376,-8.3816,-8.3849,-8.3856,-8.3869,-8.3793,-8.392,-8.4141,-8.4166,-8.3882,-8.3879,-8.3876,0,-8.2813,-8.2989,-8.3131,-8.3178,-8.3294,-8.3359,-8.341,-8.3494,-8.3561,-8.3653,-8.3697,-8.3802,-8.3859,-8.394,-8.3976,-8.3924,-8.4143,-8.4078,-8.4166,-8.4166,-8.4212,-8.4209,-8.4445,-8.4248,-8.4248,-8.4247,-8.4247,0,-8.2996,-8.3116,-8.3183,-8.327,-8.3406,-8.3441,-8.3573,-8.3622,-8.3697,-8.3793,-8.3798,-8.3887,-8.3929,-8.4025,-8.4054,-8.419,-8.4216,-8.4238,-8.4245,-8.4238,-8.4236,-8.4275,-8.4265,-8.4254,-8.4253,-8.4251,-8.425,0,-8.3145,-8.3194,-8.3348,-8.3446,-8.3474,-8.3569,-8.3653,-8.3737,-8.3778,-8.39,-8.393,-8.3994,-8.4108,-8.4152,-8.429,-8.4309,-8.4466,-8.4463,-8.4437,-8.4439,-8.4525,-8.4516,-8.4795,-8.4834,-8.4611,-8.4613,-8.4615,0,-8.3258,-8.3352,-8.3461,-8.3526,-8.358,-8.3685,-8.3754,-8.3792,-8.3863,-8.3972,-8.4043,-8.4157,-8.425,-8.4431,-8.4489,-8.4595,-8.4594,-8.4685,-8.461,-8.4601,-8.4596,-8.4591,-8.46,-8.4698,-8.4701,-8.4703,-8.4704,0,-8.3455,-8.3476,-8.3575,-8.3685,-8.3767,-8.3854,-8.3938,-8.3991,-8.4042,-8.4122,-8.4239,-8.4312,-8.4454,-8.4567,-8.4676,-8.4727,-8.4725,-8.4728,-8.4754,-8.4748,-8.473,-8.4741,-8.4475,-8.4721,-8.4719,-8.4718,-8.4717,-8.4716,-8.359,-8.3674,-8.3765,-8.3876,-8.3944,-8.4024,-8.4108,-8.4161,-8.4261,-8.4381,-8.4397,-8.4523,-8.4609,-8.4757,-8.4813,-8.4911,-8.4887,-8.4925,-8.4934,-8.4943,-8.4949,-8.4714,-8.4931,-8.4931,-8.493,-8.493,-8.493,0,-8.3788,-8.3847,-8.3949,-8.4069,-8.4156,-8.4148,-8.4242,-8.4316,-8.4427,-8.4509,-8.4602,-8.4737,-8.4847,-8.4915,-8.5026,-8.5091,-8.5093,-8.5119,-8.5114,-8.5127,-8.4964,-8.4931,-8.5116,-8.5116,-8.5116,-8.5116,-8.5116,-8.5116,-8.3901,-8.4043,-8.4075,-8.425,-8.4308,-8.4433,-8.4487,-8.4561,-8.4627,-8.4778,-8.4871,-8.4915,-8.4992,-8.5109,-8.5209,-8.5226,-8.5267,-8.5295,-8.531,-8.5157,-8.5138,-8.5119,-8.5088,-8.5304,-8.5304,-8.5465,-8.5466,-8.5467]}]]